sat.trackr.live / text

‹ back to catalog

STARLINK-36860

NORAD 67935 · 2026-037D

PAYLOAD ACTIVE UNKNOWN

§ Identity

Operator
Country
US
Launch date
2026-02-24
Launch site
AFETR
Launch vehicle
Mass (kg)
RCS (m²)

Purposes: comms

External: N2YO · Heavens-Above · Gunter

§ Orbital elements

Epoch: 2026-09-19T03:25:17.272128Z

Period
94.27 min
Inclination
43.0025°
Eccentricity
0.0001214
Mean motion
15.27586470 rev/d
Perigee alt
482.2 km
Apogee alt
483.9 km
Semi-major
6,861.2 km
B*
4.3327e-4
RAAN
178.4948°
Arg perigee
262.5147°
Mean anomaly
97.5567°
Rev number
3,292

§ Raw data

STARLINK-368601 67935U 26037D   26262.14256102  .00011682  00000+0  43327-3 0  99962 67935  43.0025 178.4948 0001214 262.5147  97.5567 15.27586470 32922

JSON: /api/v1/satellites/67935 · /tle

For live sub-satellite position, see the globe view (requires WebGL).

§ Visibility from observer

Set your observer location to see the next 7 days of passes ≥ 10°. The values pass through the URL so the page stays shareable.

No JS? Fill the form by hand. The geolocation button needs JavaScript.